Time,TemperatureF,DewpointF,PressureIn,WindDirection,WindDirectionDegrees,WindSpeedMPH,WindSpeedGustMPH,Humidity,HourlyPrecipIn,Conditions,Clouds,dailyrainin,SoftwareType,DateUTC
2013-05-02 00:01:00,47.8,45.7,30.50,WSW,253,0.0,1.0,92,0.00,,,0.00,meteohub,2013-05-02 04:01:00,
2013-05-02 00:06:00,47.5,45.5,30.50,WSW,253,0.0,1.0,93,0.00,,,0.00,meteohub,2013-05-02 04:06:00,
2013-05-02 00:11:00,47.5,45.5,30.50,WSW,253,0.0,1.0,93,0.00,,,0.00,meteohub,2013-05-02 04:11:00,
2013-05-02 00:16:00,47.1,45.5,30.51,WSW,253,0.0,1.0,94,0.00,,,0.00,meteohub,2013-05-02 04:16:00,
2013-05-02 00:21:00,47.1,45.5,30.51,WSW,253,0.0,0.0,94,0.00,,,0.00,meteohub,2013-05-02 04:21:00,
2013-05-02 00:26:00,47.1,45.5,30.51,WSW,253,0.0,0.0,94,0.00,,,0.00,meteohub,2013-05-02 04:26:00,
2013-05-02 00:31:00,47.1,45.7,30.50,WSW,253,0.0,0.0,95,0.00,,,0.00,meteohub,2013-05-02 04:31:00,
2013-05-02 00:36:00,47.3,45.9,30.50,WSW,253,0.0,1.0,95,0.00,,,0.00,meteohub,2013-05-02 04:36:00,
2013-05-02 00:42:00,47.5,46.0,30.50,WSW,254,0.0,1.0,95,0.00,,,0.00,meteohub,2013-05-02 04:42:00,
2013-05-02 00:47:00,47.7,46.2,30.50,WSW,253,0.0,1.0,95,0.00,,,0.00,meteohub,2013-05-02 04:47:00,
2013-05-02 00:52:00,47.7,46.2,30.50,WSW,253,0.0,1.0,95,0.00,,,0.00,meteohub,2013-05-02 04:52:00,
2013-05-02 00:56:00,47.8,46.4,30.50,WSW,253,0.0,1.0,95,0.00,,,0.00,meteohub,2013-05-02 04:56:00,
2013-05-02 01:01:00,48.0,46.6,30.50,WSW,253,0.0,0.0,95,0.00,,,0.00,meteohub,2013-05-02 05:01:00,
2013-05-02 01:06:00,47.8,46.2,30.50,WSW,253,0.0,0.0,94,0.00,,,0.00,meteohub,2013-05-02 05:06:00,
2013-05-02 01:11:00,47.8,46.2,30.50,WSW,253,0.0,0.0,94,0.00,,,0.00,meteohub,2013-05-02 05:11:00,
2013-05-02 01:16:00,47.8,46.2,30.50,WSW,253,0.0,0.0,94,0.00,,,0.00,meteohub,2013-05-02 05:16:00,
2013-05-02 01:21:00,47.8,46.4,30.50,WSW,253,0.0,0.0,95,0.00,,,0.00,meteohub,2013-05-02 05:21:00,
2013-05-02 01:26:00,48.0,46.6,30.50,WSW,253,0.0,0.0,95,0.00,,,0.00,meteohub,2013-05-02 05:26:00,
2013-05-02 01:31:00,47.8,46.4,30.50,WSW,253,0.0,1.0,95,0.00,,,0.00,meteohub,2013-05-02 05:31:00,
2013-05-02 01:36:00,47.8,46.4,30.50,WSW,254,0.0,1.0,95,0.00,,,0.00,meteohub,2013-05-02 05:36:00,
2013-05-02 01:41:00,47.8,46.4,30.49,WSW,253,0.0,1.0,95,0.00,,,0.00,meteohub,2013-05-02 05:41:00,
2013-05-02 01:46:00,48.0,46.6,30.49,WSW,253,0.0,1.0,95,0.00,,,0.00,meteohub,2013-05-02 05:46:00,
2013-05-02 01:51:00,47.8,46.4,30.49,WSW,253,0.0,1.0,95,0.00,,,0.00,meteohub,2013-05-02 05:51:00,
2013-05-02 01:56:00,47.7,46.2,30.49,WSW,253,0.0,1.0,95,0.00,,,0.00,meteohub,2013-05-02 05:56:00,
2013-05-02 02:01:00,47.7,46.2,30.49,WSW,254,0.0,0.0,95,0.00,,,0.00,meteohub,2013-05-02 06:01:00,
2013-05-02 02:06:00,47.7,46.6,30.49,WSW,253,0.0,0.0,96,0.00,,,0.00,meteohub,2013-05-02 06:06:00,
2013-05-02 02:11:00,47.8,46.8,30.49,WSW,253,0.0,0.0,96,0.00,,,0.00,meteohub,2013-05-02 06:11:00,
2013-05-02 02:16:00,48.0,46.9,30.48,WSW,253,0.0,0.0,96,0.00,,,0.00,meteohub,2013-05-02 06:16:00,
2013-05-02 02:21:00,47.8,46.8,30.48,WSW,253,0.0,0.0,96,0.00,,,0.00,meteohub,2013-05-02 06:21:00,
2013-05-02 02:26:00,48.0,46.9,30.48,WSW,253,0.0,0.0,96,0.00,,,0.00,meteohub,2013-05-02 06:26:00,
2013-05-02 02:31:00,47.8,46.8,30.48,WSW,253,0.0,0.0,96,0.00,,,0.00,meteohub,2013-05-02 06:31:00,
2013-05-02 02:36:00,47.8,46.4,30.48,WSW,253,0.0,0.0,95,0.00,,,0.00,meteohub,2013-05-02 06:36:00,
2013-05-02 02:41:00,47.8,46.4,30.48,WSW,253,0.0,0.0,95,0.00,,,0.00,meteohub,2013-05-02 06:41:00,
2013-05-02 02:46:00,47.7,46.2,30.48,WSW,253,0.0,0.0,95,0.00,,,0.00,meteohub,2013-05-02 06:46:00,
2013-05-02 02:51:00,47.7,46.2,30.47,WSW,253,0.0,0.0,95,0.00,,,0.00,meteohub,2013-05-02 06:51:00,
2013-05-02 02:56:00,47.7,46.0,30.47,WSW,253,0.0,0.0,94,0.00,,,0.00,meteohub,2013-05-02 06:56:00,
2013-05-02 03:01:00,48.2,46.6,30.47,WSW,253,0.0,0.0,94,0.00,,,0.00,meteohub,2013-05-02 07:01:00,
2013-05-02 03:07:00,48.6,46.4,30.47,WSW,253,0.0,0.0,92,0.00,,,0.00,meteohub,2013-05-02 07:07:00,
2013-05-02 03:11:00,48.7,46.2,30.47,WSW,253,0.0,1.0,91,0.00,,,0.00,meteohub,2013-05-02 07:11:00,
2013-05-02 03:17:00,48.9,46.0,30.46,WSW,253,0.0,1.0,90,0.00,,,0.00,meteohub,2013-05-02 07:17:00,
2013-05-02 03:22:00,49.3,46.2,30.46,WSW,253,0.0,1.0,89,0.00,,,0.00,meteohub,2013-05-02 07:22:00,
2013-05-02 03:27:00,48.9,45.9,30.46,WSW,253,0.0,1.0,89,0.00,,,0.00,meteohub,2013-05-02 07:27:00,
2013-05-02 03:32:00,48.6,45.5,30.47,WSW,253,0.0,1.0,89,0.00,,,0.00,meteohub,2013-05-02 07:32:00,
2013-05-02 03:37:00,48.2,45.3,30.46,WSW,254,0.0,1.0,90,0.00,,,0.00,meteohub,2013-05-02 07:37:00,
2013-05-02 03:42:00,47.8,45.3,30.46,WSW,253,0.0,0.0,91,0.00,,,0.00,meteohub,2013-05-02 07:42:00,
2013-05-02 03:47:00,47.5,45.3,30.47,WSW,253,0.0,0.0,92,0.00,,,0.00,meteohub,2013-05-02 07:47:00,
2013-05-02 03:52:00,47.3,45.3,30.46,WSW,253,0.0,0.0,93,0.00,,,0.00,meteohub,2013-05-02 07:52:00,
2013-05-02 03:57:00,47.1,45.5,30.46,WSW,253,0.0,0.0,94,0.00,,,0.00,meteohub,2013-05-02 07:57:00,
2013-05-02 04:02:00,46.9,45.3,30.47,WSW,253,0.0,0.0,94,0.00,,,0.00,meteohub,2013-05-02 08:02:00,
2013-05-02 04:07:00,46.9,45.3,30.46,WSW,253,0.0,0.0,94,0.00,,,0.00,meteohub,2013-05-02 08:07:00,
2013-05-02 04:12:00,46.9,45.5,30.46,WSW,253,0.0,0.0,95,0.00,,,0.00,meteohub,2013-05-02 08:12:00,
2013-05-02 04:17:00,46.8,45.3,30.46,WSW,253,0.0,0.0,95,0.00,,,0.00,meteohub,2013-05-02 08:17:00,
2013-05-02 04:22:00,46.6,45.1,30.46,WSW,253,0.0,0.0,95,0.00,,,0.00,meteohub,2013-05-02 08:22:00,
2013-05-02 04:27:00,46.6,45.1,30.46,WSW,254,0.0,0.0,95,0.00,,,0.00,meteohub,2013-05-02 08:27:00,
2013-05-02 04:32:00,46.6,45.1,30.45,WSW,253,0.0,0.0,95,0.00,,,0.00,meteohub,2013-05-02 08:32:00,
2013-05-02 04:37:00,46.6,45.1,30.45,WSW,253,0.0,0.0,95,0.00,,,0.00,meteohub,2013-05-02 08:37:00,
2013-05-02 04:42:00,46.8,45.7,30.46,WSW,253,0.0,0.0,96,0.00,,,0.00,meteohub,2013-05-02 08:42:00,
2013-05-02 04:47:00,46.9,45.9,30.46,WSW,253,0.0,0.0,96,0.00,,,0.00,meteohub,2013-05-02 08:47:00,
2013-05-02 04:52:00,47.3,46.2,30.45,WSW,253,0.0,0.0,96,0.00,,,0.00,meteohub,2013-05-02 08:52:00,
2013-05-02 04:57:00,47.5,46.0,30.46,WSW,253,0.0,0.0,95,0.00,,,0.00,meteohub,2013-05-02 08:57:00,
2013-05-02 05:02:00,47.7,46.0,30.46,WSW,255,0.0,0.0,94,0.00,,,0.00,meteohub,2013-05-02 09:02:00,
2013-05-02 05:07:00,47.7,45.7,30.46,SE,129,0.0,0.0,93,0.00,,,0.00,meteohub,2013-05-02 09:07:00,
2013-05-02 05:12:00,47.3,45.3,30.46,ESE,113,1.0,0.0,93,0.00,,,0.00,meteohub,2013-05-02 09:12:00,
2013-05-02 05:16:00,46.9,45.0,30.46,ESE,111,1.0,2.0,93,0.00,,,0.00,meteohub,2013-05-02 09:16:00,
2013-05-02 05:21:00,46.6,44.6,30.47,ESE,118,1.0,4.0,93,0.00,,,0.00,meteohub,2013-05-02 09:21:00,
2013-05-02 05:27:00,46.6,45.0,30.47,ESE,112,2.0,4.0,94,0.00,,,0.00,meteohub,2013-05-02 09:27:00,
2013-05-02 05:32:00,46.6,45.0,30.47,East,90,1.0,4.0,94,0.00,,,0.00,meteohub,2013-05-02 09:32:00,
2013-05-02 05:37:00,46.2,44.6,30.47,ESE,110,3.0,4.0,94,0.00,,,0.00,meteohub,2013-05-02 09:37:00,
2013-05-02 05:42:00,46.2,44.6,30.47,SSE,155,2.0,5.0,94,0.00,,,0.00,meteohub,2013-05-02 09:42:00,
2013-05-02 05:46:00,46.2,44.6,30.47,SSE,150,3.0,5.0,94,0.00,,,0.00,meteohub,2013-05-02 09:46:00,
2013-05-02 05:51:00,45.9,44.2,30.47,SSE,150,2.0,5.0,94,0.00,,,0.00,meteohub,2013-05-02 09:51:00,
2013-05-02 05:57:00,46.0,44.4,30.47,ESE,117,4.0,5.0,94,0.00,,,0.00,meteohub,2013-05-02 09:57:00,
2013-05-02 06:02:00,46.2,44.8,30.47,ESE,117,5.0,7.0,95,0.00,,,0.00,meteohub,2013-05-02 10:02:00,
2013-05-02 06:07:00,46.6,45.1,30.46,SE,125,5.0,7.0,95,0.00,,,0.00,meteohub,2013-05-02 10:07:00,
2013-05-02 06:12:00,46.9,45.5,30.46,ESE,117,3.0,7.0,95,0.00,,,0.00,meteohub,2013-05-02 10:12:00,
2013-05-02 06:16:00,47.1,45.7,30.46,ESE,120,3.0,6.0,95,0.00,,,0.00,meteohub,2013-05-02 10:16:00,
2013-05-02 06:21:00,47.8,46.4,30.46,ESE,115,3.0,6.0,95,0.00,,,0.00,meteohub,2013-05-02 10:21:00,
2013-05-02 06:26:00,48.4,46.8,30.47,ESE,110,2.0,4.0,94,0.00,,,0.00,meteohub,2013-05-02 10:26:00,
2013-05-02 06:32:00,48.6,46.9,30.47,ESE,119,2.0,4.0,94,0.00,,,0.00,meteohub,2013-05-02 10:32:00,
2013-05-02 06:37:00,48.7,47.1,30.47,ESE,110,1.0,4.0,94,0.00,,,0.00,meteohub,2013-05-02 10:37:00,
2013-05-02 06:42:00,49.3,47.7,30.47,SE,145,1.0,3.0,94,0.00,,,0.00,meteohub,2013-05-02 10:42:00,
2013-05-02 06:47:00,49.6,47.7,30.47,SE,131,1.0,3.0,93,0.00,,,0.00,meteohub,2013-05-02 10:47:00,
2013-05-02 06:52:00,49.8,47.8,30.47,SE,131,1.0,3.0,93,0.00,,,0.00,meteohub,2013-05-02 10:52:00,
2013-05-02 06:57:00,50.0,48.0,30.48,ESE,117,2.0,3.0,93,0.00,,,0.00,meteohub,2013-05-02 10:57:00,
2013-05-02 07:02:00,50.4,48.4,30.48,ESE,120,0.0,3.0,93,0.00,,,0.00,meteohub,2013-05-02 11:02:00,
2013-05-02 07:07:00,50.7,48.6,30.48,ESE,111,0.0,3.0,92,0.00,,,0.00,meteohub,2013-05-02 11:07:00,
2013-05-02 07:12:00,51.3,49.1,30.48,SE,134,0.0,3.0,92,0.00,,,0.00,meteohub,2013-05-02 11:12:00,
2013-05-02 07:17:00,51.1,48.2,30.48,North,0,0.0,2.0,90,0.00,,,0.00,meteohub,2013-05-02 11:17:00,
2013-05-02 07:22:00,50.5,48.0,30.48,North,359,0.0,2.0,91,0.00,,,0.00,meteohub,2013-05-02 11:22:00,
2013-05-02 07:27:00,50.4,47.8,30.49,NNW,344,0.0,2.0,91,0.00,,,0.00,meteohub,2013-05-02 11:27:00,
2013-05-02 07:32:00,50.4,48.2,30.48,NNW,340,0.0,2.0,92,0.00,,,0.00,meteohub,2013-05-02 11:32:00,
2013-05-02 07:37:00,50.4,48.2,30.49,NNW,333,0.0,2.0,92,0.00,,,0.00,meteohub,2013-05-02 11:37:00,
2013-05-02 07:42:00,50.4,48.2,30.48,NNW,330,0.0,1.0,92,0.00,,,0.00,meteohub,2013-05-02 11:42:00,
2013-05-02 07:47:00,50.4,48.2,30.48,NNW,328,0.0,1.0,92,0.00,,,0.00,meteohub,2013-05-02 11:47:00,
2013-05-02 07:52:00,50.4,48.2,30.48,NNW,347,3.0,3.0,92,0.00,,,0.00,meteohub,2013-05-02 11:52:00,
2013-05-02 07:57:00,50.0,47.8,30.48,North,356,1.0,3.0,92,0.00,,,0.00,meteohub,2013-05-02 11:57:00,
2013-05-02 08:02:00,50.0,48.0,30.48,North,8,2.0,3.0,93,0.00,,,0.00,meteohub,2013-05-02 12:02:00,
2013-05-02 08:07:00,49.8,47.8,30.48,NNE,20,3.0,3.0,93,0.00,,,0.00,meteohub,2013-05-02 12:07:00,
2013-05-02 08:12:00,49.8,47.8,30.49,North,8,3.0,4.0,93,0.00,,,0.00,meteohub,2013-05-02 12:12:00,
2013-05-02 08:17:00,49.8,47.8,30.49,NNE,21,2.0,4.0,93,0.00,,,0.00,meteohub,2013-05-02 12:17:00,
2013-05-02 08:22:00,49.8,47.8,30.49,NNE,27,3.0,4.0,93,0.00,,,0.00,meteohub,2013-05-02 12:22:00,
2013-05-02 08:27:00,49.6,47.7,30.49,North,8,4.0,4.0,93,0.00,,,0.00,meteohub,2013-05-02 12:27:00,
2013-05-02 08:32:00,49.6,47.7,30.49,NNE,23,2.0,5.0,93,0.00,,,0.00,meteohub,2013-05-02 12:32:00,
2013-05-02 08:37:00,49.8,47.8,30.49,NNE,19,2.0,5.0,93,0.00,,,0.00,meteohub,2013-05-02 12:37:00,
2013-05-02 08:42:00,49.8,47.8,30.49,North,9,1.0,5.0,93,0.00,,,0.00,meteohub,2013-05-02 12:42:00,
2013-05-02 08:47:00,50.0,48.0,30.49,NE,34,1.0,4.0,93,0.00,,,0.00,meteohub,2013-05-02 12:47:00,
2013-05-02 08:52:00,49.8,47.7,30.49,NNE,19,2.0,3.0,92,0.00,,,0.00,meteohub,2013-05-02 12:52:00,
2013-05-02 08:57:00,49.8,47.7,30.49,NNE,13,2.0,3.0,92,0.00,,,0.00,meteohub,2013-05-02 12:57:00,
2013-05-02 09:02:00,50.0,48.0,30.49,NNW,348,2.0,3.0,93,0.00,,,0.00,meteohub,2013-05-02 13:02:00,
2013-05-02 09:07:00,50.2,48.2,30.49,NNW,341,1.0,3.0,93,0.00,,,0.00,meteohub,2013-05-02 13:07:00,
2013-05-02 09:12:00,50.2,48.2,30.49,NNW,330,2.0,2.0,93,0.00,,,0.00,meteohub,2013-05-02 13:12:00,
2013-05-02 09:17:00,50.2,48.2,30.49,NNW,342,3.0,3.0,93,0.00,,,0.00,meteohub,2013-05-02 13:17:00,
2013-05-02 09:22:00,50.2,48.0,30.49,NNW,337,4.0,4.0,92,0.00,,,0.00,meteohub,2013-05-02 13:22:00,
2013-05-02 09:27:00,50.2,48.0,30.49,NNW,328,3.0,5.0,92,0.00,,,0.00,meteohub,2013-05-02 13:27:00,
2013-05-02 09:32:00,50.2,48.0,30.49,NNW,340,5.0,5.0,92,0.00,,,0.00,meteohub,2013-05-02 13:32:00,
2013-05-02 09:37:00,50.0,47.8,30.49,NW,318,2.0,6.0,92,0.00,,,0.00,meteohub,2013-05-02 13:37:00,
2013-05-02 09:42:00,50.4,48.2,30.49,NNW,328,4.0,6.0,92,0.00,,,0.00,meteohub,2013-05-02 13:42:00,
2013-05-02 09:47:00,50.4,48.2,30.49,NW,326,4.0,6.0,92,0.00,,,0.00,meteohub,2013-05-02 13:47:00,
2013-05-02 09:52:00,50.2,48.0,30.49,NNW,342,3.0,5.0,92,0.00,,,0.00,meteohub,2013-05-02 13:52:00,
2013-05-02 09:57:00,50.4,48.2,30.49,NNW,328,3.0,5.0,92,0.00,,,0.00,meteohub,2013-05-02 13:57:00,
2013-05-02 10:02:00,50.4,47.8,30.50,North,351,4.0,5.0,91,0.00,,,0.00,meteohub,2013-05-02 14:02:00,
2013-05-02 10:07:00,50.2,47.7,30.50,NNW,340,4.0,5.0,91,0.00,,,0.00,meteohub,2013-05-02 14:07:00,
2013-05-02 10:12:00,50.2,47.7,30.50,NW,318,2.0,5.0,91,0.00,,,0.00,meteohub,2013-05-02 14:12:00,
2013-05-02 10:17:00,50.4,47.8,30.50,NNW,333,4.0,5.0,91,0.00,,,0.00,meteohub,2013-05-02 14:17:00,
2013-05-02 10:22:00,50.4,47.8,30.50,North,354,3.0,5.0,91,0.00,,,0.00,meteohub,2013-05-02 14:22:00,
2013-05-02 10:27:00,50.7,48.2,30.50,NW,316,3.0,5.0,91,0.00,,,0.00,meteohub,2013-05-02 14:27:00,
2013-05-02 10:31:00,50.9,48.4,30.50,NW,304,2.0,5.0,91,0.00,,,0.00,meteohub,2013-05-02 14:31:00,
2013-05-02 10:37:00,51.4,48.6,30.50,NW,325,3.0,5.0,90,0.00,,,0.00,meteohub,2013-05-02 14:37:00,
2013-05-02 10:42:00,51.4,48.4,30.50,NW,312,2.0,4.0,89,0.00,,,0.00,meteohub,2013-05-02 14:42:00,
2013-05-02 10:47:00,51.6,48.2,30.50,NW,316,2.0,4.0,88,0.00,,,0.00,meteohub,2013-05-02 14:47:00,
2013-05-02 10:52:00,51.6,48.6,30.50,NW,314,3.0,4.0,89,0.00,,,0.00,meteohub,2013-05-02 14:52:00,
2013-05-02 10:57:00,51.8,48.7,30.50,WNW,295,2.0,4.0,89,0.00,,,0.00,meteohub,2013-05-02 14:57:00,
2013-05-02 11:02:00,51.8,48.4,30.50,NW,312,3.0,4.0,88,0.00,,,0.00,meteohub,2013-05-02 15:02:00,
2013-05-02 11:07:00,51.6,48.2,30.50,NW,314,2.0,4.0,88,0.00,,,0.00,meteohub,2013-05-02 15:07:00,
2013-05-02 11:12:00,52.2,48.7,30.50,NNW,335,3.0,4.0,88,0.00,,,0.00,meteohub,2013-05-02 15:12:00,
2013-05-02 11:17:00,52.0,48.2,30.50,WNW,300,3.0,4.0,87,0.00,,,0.00,meteohub,2013-05-02 15:17:00,
2013-05-02 11:22:00,52.3,48.9,30.50,NW,316,2.0,4.0,88,0.00,,,0.00,meteohub,2013-05-02 15:22:00,
2013-05-02 11:27:00,52.9,49.1,30.50,North,357,3.0,4.0,87,0.00,,,0.00,meteohub,2013-05-02 15:27:00,
2013-05-02 11:32:00,52.9,49.5,30.49,NW,309,2.0,3.0,88,0.00,,,0.00,meteohub,2013-05-02 15:32:00,
2013-05-02 11:37:00,52.9,49.1,30.49,NNW,335,3.0,5.0,87,0.00,,,0.00,meteohub,2013-05-02 15:37:00,
2013-05-02 11:42:00,52.5,48.7,30.49,NNW,342,3.0,5.0,87,0.00,,,0.00,meteohub,2013-05-02 15:42:00,
2013-05-02 11:47:00,52.7,49.3,30.49,NW,311,2.0,5.0,88,0.00,,,0.00,meteohub,2013-05-02 15:47:00,
2013-05-02 11:52:00,53.1,49.6,30.49,NNW,328,2.0,4.0,88,0.00,,,0.00,meteohub,2013-05-02 15:52:00,
2013-05-02 11:56:00,53.2,49.1,30.48,NW,318,3.0,4.0,86,0.00,,,0.00,meteohub,2013-05-02 15:56:00,
2013-05-02 12:01:00,53.2,49.1,30.48,NW,314,3.0,3.0,86,0.00,,,0.00,meteohub,2013-05-02 16:01:00,
2013-05-02 12:07:00,53.8,50.0,30.48,NW,314,3.0,4.0,87,0.00,,,0.00,meteohub,2013-05-02 16:07:00,
2013-05-02 12:12:00,54.1,50.4,30.48,NNW,328,3.0,4.0,87,0.00,,,0.00,meteohub,2013-05-02 16:12:00,
2013-05-02 12:17:00,54.1,49.8,30.48,WNW,302,3.0,4.0,85,0.00,,,0.00,meteohub,2013-05-02 16:17:00,
2013-05-02 12:22:00,54.0,49.6,30.47,NW,319,3.0,4.0,85,0.00,,,0.00,meteohub,2013-05-02 16:22:00,
2013-05-02 12:27:00,54.7,50.2,30.47,WNW,295,1.0,4.0,85,0.00,,,0.00,meteohub,2013-05-02 16:27:00,
2013-05-02 12:32:00,55.2,50.7,30.47,WNW,298,2.0,4.0,85,0.00,,,0.00,meteohub,2013-05-02 16:32:00,
2013-05-02 12:37:00,55.9,50.5,30.46,WNW,302,2.0,4.0,82,0.00,,,0.00,meteohub,2013-05-02 16:37:00,
2013-05-02 12:42:00,56.1,49.3,30.46,NW,305,2.0,4.0,78,0.00,,,0.00,meteohub,2013-05-02 16:42:00,
2013-05-02 12:47:00,56.5,50.0,30.46,WNW,294,2.0,3.0,79,0.00,,,0.00,meteohub,2013-05-02 16:47:00,
2013-05-02 12:52:00,56.8,50.4,30.46,NW,314,2.0,3.0,79,0.00,,,0.00,meteohub,2013-05-02 16:52:00,
2013-05-02 12:57:00,56.8,51.1,30.46,NW,308,1.0,3.0,81,0.00,,,0.00,meteohub,2013-05-02 16:57:00,
2013-05-02 13:02:00,57.0,51.6,30.46,West,276,3.0,4.0,82,0.00,,,0.00,meteohub,2013-05-02 17:02:00,
2013-05-02 13:07:00,57.4,51.3,30.45,NW,321,3.0,4.0,80,0.00,,,0.00,meteohub,2013-05-02 17:07:00,
2013-05-02 13:12:00,57.0,50.9,30.46,NW,311,2.0,4.0,80,0.00,,,0.00,meteohub,2013-05-02 17:12:00,
2013-05-02 13:17:00,57.0,51.6,30.45,WNW,300,2.0,3.0,82,0.00,,,0.00,meteohub,2013-05-02 17:17:00,
2013-05-02 13:21:00,57.6,50.4,30.45,NW,316,2.0,4.0,77,0.00,,,0.00,meteohub,2013-05-02 17:21:00,
2013-05-02 13:26:00,57.6,48.6,30.45,WNW,284,0.0,4.0,72,0.00,,,0.00,meteohub,2013-05-02 17:26:00,
2013-05-02 13:31:00,57.7,46.4,30.45,NW,304,1.0,4.0,66,0.00,,,0.00,meteohub,2013-05-02 17:31:00,
2013-05-02 13:36:00,58.6,47.7,30.44,WNW,283,1.0,3.0,67,0.00,,,0.00,meteohub,2013-05-02 17:36:00,
2013-05-02 13:41:00,59.7,49.1,30.44,NW,304,3.0,3.0,68,0.00,,,0.00,meteohub,2013-05-02 17:41:00,
2013-05-02 13:46:00,59.9,48.9,30.44,NW,308,3.0,3.0,67,0.00,,,0.00,meteohub,2013-05-02 17:46:00,
2013-05-02 13:51:00,59.7,51.4,30.45,NNW,333,2.0,4.0,74,0.00,,,0.00,meteohub,2013-05-02 17:51:00,
2013-05-02 13:57:00,59.2,51.6,30.44,WSW,245,2.0,4.0,76,0.00,,,0.00,meteohub,2013-05-02 17:57:00,
2013-05-02 14:02:00,58.8,50.2,30.44,West,277,2.0,4.0,73,0.00,,,0.00,meteohub,2013-05-02 18:02:00,
2013-05-02 14:07:00,59.7,51.4,30.45,West,269,2.0,4.0,74,0.00,,,0.00,meteohub,2013-05-02 18:07:00,
2013-05-02 14:12:00,59.4,51.1,30.44,WNW,301,2.0,4.0,74,0.00,,,0.00,meteohub,2013-05-02 18:12:00,
2013-05-02 14:17:00,60.1,50.7,30.44,WNW,288,1.0,4.0,71,0.00,,,0.00,meteohub,2013-05-02 18:17:00,
2013-05-02 14:21:00,59.7,49.5,30.44,NW,314,2.0,4.0,69,0.00,,,0.00,meteohub,2013-05-02 18:21:00,
2013-05-02 14:26:00,59.9,50.5,30.44,NNE,20,2.0,4.0,71,0.00,,,0.00,meteohub,2013-05-02 18:26:00,
2013-05-02 14:32:00,59.4,51.4,30.44,WNW,294,2.0,4.0,75,0.00,,,0.00,meteohub,2013-05-02 18:32:00,
2013-05-02 14:37:00,59.2,51.3,30.43,NNW,332,2.0,4.0,75,0.00,,,0.00,meteohub,2013-05-02 18:37:00,
2013-05-02 14:41:00,58.6,52.2,30.43,NNW,339,2.0,3.0,79,0.00,,,0.00,meteohub,2013-05-02 18:41:00,
2013-05-02 14:47:00,57.9,51.4,30.43,NNE,33,1.0,4.0,79,0.00,,,0.00,meteohub,2013-05-02 18:47:00,
2013-05-02 14:52:00,58.5,51.3,30.43,NNE,31,2.0,4.0,77,0.00,,,0.00,meteohub,2013-05-02 18:52:00,
2013-05-02 14:57:00,60.3,52.7,30.43,NNE,29,2.0,4.0,76,0.00,,,0.00,meteohub,2013-05-02 18:57:00,
2013-05-02 15:02:00,60.4,53.2,30.43,South,186,3.0,3.0,77,0.00,,,0.00,meteohub,2013-05-02 19:02:00,
2013-05-02 15:07:00,61.0,52.7,30.43,ESE,120,1.0,5.0,74,0.00,,,0.00,meteohub,2013-05-02 19:07:00,
2013-05-02 15:12:00,61.9,52.7,30.43,West,277,0.0,8.0,72,0.00,,,0.00,meteohub,2013-05-02 19:12:00,
2013-05-02 15:17:00,64.0,54.1,30.42,SSE,165,0.0,8.0,70,0.00,,,0.00,meteohub,2013-05-02 19:17:00,
2013-05-02 15:22:00,66.4,51.6,30.42,SSE,155,2.0,8.0,59,0.00,,,0.00,meteohub,2013-05-02 19:22:00,
2013-05-02 15:27:00,67.3,51.1,30.42,SSE,157,6.0,8.0,56,0.00,,,0.00,meteohub,2013-05-02 19:27:00,
2013-05-02 15:32:00,67.5,49.8,30.42,SSE,149,1.0,8.0,53,0.00,,,0.00,meteohub,2013-05-02 19:32:00,
2013-05-02 15:37:00,67.6,48.4,30.41,West,280,1.0,8.0,50,0.00,,,0.00,meteohub,2013-05-02 19:37:00,
2013-05-02 15:42:00,68.0,46.9,30.41,SE,131,4.0,8.0,47,0.00,,,0.00,meteohub,2013-05-02 19:42:00,
2013-05-02 15:47:00,67.8,46.2,30.41,South,179,3.0,8.0,46,0.00,,,0.00,meteohub,2013-05-02 19:47:00,
2013-05-02 15:52:00,68.2,46.6,30.41,WSW,245,4.0,10.0,46,0.00,,,0.00,meteohub,2013-05-02 19:52:00,
2013-05-02 15:57:00,68.4,47.3,30.41,SSE,156,0.0,10.0,47,0.00,,,0.00,meteohub,2013-05-02 19:57:00,
2013-05-02 16:02:00,68.5,45.1,30.41,SE,142,4.0,8.0,43,0.00,,,0.00,meteohub,2013-05-02 20:02:00,
2013-05-02 16:07:00,68.4,46.8,30.41,South,190,3.0,11.0,46,0.00,,,0.00,meteohub,2013-05-02 20:07:00,
2013-05-02 16:12:00,68.5,46.9,30.40,SSW,207,2.0,11.0,46,0.00,,,0.00,meteohub,2013-05-02 20:12:00,
2013-05-02 16:16:00,68.4,47.8,30.40,WSW,240,4.0,11.0,48,0.00,,,0.00,meteohub,2013-05-02 20:16:00,
2013-05-02 16:22:00,68.5,47.5,30.40,West,280,2.0,10.0,47,0.00,,,0.00,meteohub,2013-05-02 20:22:00,
2013-05-02 16:27:00,68.4,47.8,30.40,SE,129,3.0,8.0,48,0.00,,,0.00,meteohub,2013-05-02 20:27:00,
2013-05-02 16:32:00,68.7,47.7,30.39,ENE,64,2.0,8.0,47,0.00,,,0.00,meteohub,2013-05-02 20:32:00,
2013-05-02 16:37:00,68.5,46.9,30.39,South,176,3.0,8.0,46,0.00,,,0.00,meteohub,2013-05-02 20:37:00,
2013-05-02 16:41:00,68.5,46.9,30.39,South,176,2.0,8.0,46,0.00,,,0.00,meteohub,2013-05-02 20:41:00,
2013-05-02 16:46:00,68.4,46.2,30.39,SSE,158,4.0,8.0,45,0.00,,,0.00,meteohub,2013-05-02 20:46:00,
2013-05-02 16:52:00,68.2,46.6,30.39,SE,125,1.0,10.0,46,0.00,,,0.00,meteohub,2013-05-02 20:52:00,
2013-05-02 16:57:00,68.7,45.9,30.39,SE,131,2.0,10.0,44,0.00,,,0.00,meteohub,2013-05-02 20:57:00,
2013-05-02 17:02:00,68.5,45.7,30.39,SW,232,3.0,10.0,44,0.00,,,0.00,meteohub,2013-05-02 21:02:00,
2013-05-02 17:07:00,68.4,45.0,30.39,SSW,200,1.0,7.0,43,0.00,,,0.00,meteohub,2013-05-02 21:07:00,
2013-05-02 17:12:00,68.5,45.1,30.38,SE,135,4.0,7.0,43,0.00,,,0.00,meteohub,2013-05-02 21:12:00,
2013-05-02 17:17:00,68.2,45.5,30.38,SW,217,6.0,7.0,44,0.00,,,0.00,meteohub,2013-05-02 21:17:00,
2013-05-02 17:22:00,68.2,46.0,30.38,SE,136,3.0,8.0,45,0.00,,,0.00,meteohub,2013-05-02 21:22:00,
2013-05-02 17:27:00,68.2,46.0,30.38,South,188,1.0,8.0,45,0.00,,,0.00,meteohub,2013-05-02 21:27:00,
2013-05-02 17:32:00,68.0,45.9,30.38,SSW,212,2.0,7.0,45,0.00,,,0.00,meteohub,2013-05-02 21:32:00,
2013-05-02 17:37:00,67.8,45.7,30.38,SE,144,2.0,8.0,45,0.00,,,0.00,meteohub,2013-05-02 21:37:00,
2013-05-02 17:42:00,67.5,45.3,30.38,SW,221,3.0,8.0,45,0.00,,,0.00,meteohub,2013-05-02 21:42:00,
2013-05-02 17:47:00,67.3,44.6,30.38,SSW,208,5.0,8.0,44,0.00,,,0.00,meteohub,2013-05-02 21:47:00,
2013-05-02 17:52:00,66.7,44.8,30.38,SSE,154,2.0,8.0,45,0.00,,,0.00,meteohub,2013-05-02 21:52:00,
2013-05-02 17:57:00,66.9,45.5,30.38,SSE,155,2.0,7.0,46,0.00,,,0.00,meteohub,2013-05-02 21:57:00,
2013-05-02 18:02:00,66.7,45.3,30.38,SE,124,2.0,6.0,46,0.00,,,0.00,meteohub,2013-05-02 22:02:00,
2013-05-02 18:07:00,66.6,44.6,30.38,SW,217,2.0,8.0,45,0.00,,,0.00,meteohub,2013-05-02 22:07:00,
2013-05-02 18:11:00,66.4,45.5,30.38,South,191,5.0,10.0,47,0.00,,,0.00,meteohub,2013-05-02 22:11:00,
2013-05-02 18:17:00,66.4,46.0,30.37,SSE,166,5.0,10.0,48,0.00,,,0.00,meteohub,2013-05-02 22:17:00,
2013-05-02 18:22:00,66.0,45.7,30.38,SW,234,0.0,10.0,48,0.00,,,0.00,meteohub,2013-05-02 22:22:00,
2013-05-02 18:27:00,65.7,44.2,30.38,SSW,194,4.0,6.0,46,0.00,,,0.00,meteohub,2013-05-02 22:27:00,
2013-05-02 18:31:00,64.9,44.8,30.37,SE,136,2.0,7.0,48,0.00,,,0.00,meteohub,2013-05-02 22:31:00,
2013-05-02 18:36:00,64.4,44.2,30.37,SE,138,3.0,8.0,48,0.00,,,0.00,meteohub,2013-05-02 22:36:00,
2013-05-02 18:41:00,63.9,44.8,30.37,SSW,193,2.0,8.0,50,0.00,,,0.00,meteohub,2013-05-02 22:41:00,
2013-05-02 18:46:00,63.9,45.3,30.37,SSE,155,4.0,8.0,51,0.00,,,0.00,meteohub,2013-05-02 22:46:00,
2013-05-02 18:51:00,63.5,45.5,30.37,SSW,207,2.0,7.0,52,0.00,,,0.00,meteohub,2013-05-02 22:51:00,
2013-05-02 18:56:00,63.5,45.5,30.37,South,170,1.0,7.0,52,0.00,,,0.00,meteohub,2013-05-02 22:56:00,
2013-05-02 19:01:00,63.3,45.9,30.37,SSE,164,2.0,7.0,53,0.00,,,0.00,meteohub,2013-05-02 23:01:00,
2013-05-02 19:06:00,63.1,46.2,30.37,South,187,2.0,6.0,54,0.00,,,0.00,meteohub,2013-05-02 23:06:00,
2013-05-02 19:11:00,63.0,46.6,30.38,South,188,4.0,6.0,55,0.00,,,0.00,meteohub,2013-05-02 23:11:00,
2013-05-02 19:16:00,62.4,46.0,30.37,SSE,163,1.0,6.0,55,0.00,,,0.00,meteohub,2013-05-02 23:16:00,
2013-05-02 19:21:00,61.9,46.0,30.38,SE,139,0.0,4.0,56,0.00,,,0.00,meteohub,2013-05-02 23:21:00,
2013-05-02 19:27:00,61.2,45.9,30.38,SSE,159,0.0,4.0,57,0.00,,,0.00,meteohub,2013-05-02 23:27:00,
2013-05-02 19:32:00,60.6,45.3,30.38,ESE,118,0.0,3.0,57,0.00,,,0.00,meteohub,2013-05-02 23:32:00,
2013-05-02 19:36:00,60.1,45.3,30.38,SSE,168,0.0,2.0,58,0.00,,,0.00,meteohub,2013-05-02 23:36:00,
2013-05-02 19:41:00,59.4,45.0,30.39,ESE,117,1.0,2.0,59,0.00,,,0.00,meteohub,2013-05-02 23:41:00,
2013-05-02 19:46:00,58.5,44.6,30.38,South,169,0.0,2.0,60,0.00,,,0.00,meteohub,2013-05-02 23:46:00,
2013-05-02 19:51:00,57.9,45.0,30.38,South,170,0.0,2.0,62,0.00,,,0.00,meteohub,2013-05-02 23:51:00,
2013-05-02 19:56:00,57.4,45.0,30.38,SSE,158,0.0,2.0,63,0.00,,,0.00,meteohub,2013-05-02 23:56:00,
2013-05-02 20:01:00,56.8,44.8,30.39,SSW,200,0.0,2.0,64,0.00,,,0.00,meteohub,2013-05-03 00:01:00,
2013-05-02 20:06:00,56.5,44.4,30.39,SSW,194,1.0,2.0,64,0.00,,,0.00,meteohub,2013-05-03 00:06:00,
2013-05-02 20:11:00,56.1,44.6,30.40,SSE,164,0.0,2.0,65,0.00,,,0.00,meteohub,2013-05-03 00:11:00,
2013-05-02 20:16:00,55.8,44.6,30.40,SSE,150,0.0,2.0,66,0.00,,,0.00,meteohub,2013-05-03 00:16:00,
2013-05-02 20:21:00,55.8,44.6,30.40,SE,131,2.0,2.0,66,0.00,,,0.00,meteohub,2013-05-03 00:21:00,
2013-05-02 20:26:00,55.8,44.2,30.40,SSE,152,2.0,2.0,65,0.00,,,0.00,meteohub,2013-05-03 00:26:00,
2013-05-02 20:31:00,55.8,44.6,30.40,SE,135,1.0,3.0,66,0.00,,,0.00,meteohub,2013-05-03 00:31:00,
2013-05-02 20:36:00,55.6,44.1,30.40,SE,131,2.0,3.0,65,0.00,,,0.00,meteohub,2013-05-03 00:36:00,
2013-05-02 20:41:00,55.4,44.6,30.40,SE,136,3.0,3.0,67,0.00,,,0.00,meteohub,2013-05-03 00:41:00,
2013-05-02 20:46:00,54.9,45.0,30.41,ESE,122,2.0,3.0,69,0.00,,,0.00,meteohub,2013-05-03 00:46:00,
2013-05-02 20:51:00,54.3,44.8,30.42,ESE,117,2.0,4.0,70,0.00,,,0.00,meteohub,2013-05-03 00:51:00,
2013-05-02 20:56:00,54.3,44.8,30.42,SE,135,2.0,4.0,70,0.00,,,0.00,meteohub,2013-05-03 00:56:00,
2013-05-02 21:01:00,54.5,45.0,30.42,SE,129,2.0,4.0,70,0.00,,,0.00,meteohub,2013-05-03 01:01:00,
2013-05-02 21:06:00,54.7,45.1,30.43,SE,141,3.0,4.0,70,0.00,,,0.00,meteohub,2013-05-03 01:06:00,
2013-05-02 21:11:00,54.5,45.3,30.43,ESE,115,2.0,4.0,71,0.00,,,0.00,meteohub,2013-05-03 01:11:00,
2013-05-02 21:16:00,54.3,45.1,30.42,SE,134,2.0,4.0,71,0.00,,,0.00,meteohub,2013-05-03 01:16:00,
2013-05-02 21:21:00,54.7,45.5,30.42,SE,138,2.0,4.0,71,0.00,,,0.00,meteohub,2013-05-03 01:21:00,
2013-05-02 21:26:00,54.9,45.3,30.43,ESE,122,4.0,4.0,70,0.00,,,0.00,meteohub,2013-05-03 01:26:00,
2013-05-02 21:31:00,54.9,45.7,30.43,SE,134,3.0,5.0,71,0.00,,,0.00,meteohub,2013-05-03 01:31:00,
2013-05-02 21:36:00,54.5,45.7,30.43,ESE,117,3.0,5.0,72,0.00,,,0.00,meteohub,2013-05-03 01:36:00,
2013-05-02 21:41:00,54.3,45.9,30.43,ESE,121,3.0,5.0,73,0.00,,,0.00,meteohub,2013-05-03 01:41:00,
2013-05-02 21:46:00,54.3,46.2,30.43,ESE,121,3.0,5.0,74,0.00,,,0.00,meteohub,2013-05-03 01:46:00,
2013-05-02 21:52:00,54.3,46.9,30.43,SE,131,3.0,6.0,76,0.00,,,0.00,meteohub,2013-05-03 01:52:00,
2013-05-02 21:57:00,54.3,46.9,30.43,SE,128,3.0,6.0,76,0.00,,,0.00,meteohub,2013-05-03 01:57:00,
2013-05-02 22:02:00,54.1,47.1,30.43,ESE,117,3.0,5.0,77,0.00,,,0.00,meteohub,2013-05-03 02:02:00,
2013-05-02 22:07:00,54.1,47.5,30.43,ESE,117,2.0,5.0,78,0.00,,,0.00,meteohub,2013-05-03 02:07:00,
2013-05-02 22:12:00,54.1,47.5,30.43,ESE,106,4.0,6.0,78,0.00,,,0.00,meteohub,2013-05-03 02:12:00,
2013-05-02 22:17:00,54.3,47.7,30.43,SE,143,5.0,7.0,78,0.00,,,0.00,meteohub,2013-05-03 02:17:00,
2013-05-02 22:22:00,54.3,47.3,30.43,ESE,122,2.0,8.0,77,0.00,,,0.00,meteohub,2013-05-03 02:22:00,
2013-05-02 22:26:00,54.5,47.1,30.43,SE,134,2.0,8.0,76,0.00,,,0.00,meteohub,2013-05-03 02:26:00,
2013-05-02 22:31:00,54.7,46.9,30.43,ESE,106,4.0,8.0,75,0.00,,,0.00,meteohub,2013-05-03 02:31:00,
2013-05-02 22:36:00,54.7,47.3,30.44,ENE,58,9.0,9.0,76,0.00,,,0.00,meteohub,2013-05-03 02:36:00,
2013-05-02 22:41:00,54.7,47.3,30.44,ESE,122,3.0,17.0,76,0.00,,,0.00,meteohub,2013-05-03 02:41:00,
2013-05-02 22:46:00,54.7,46.9,30.44,South,177,5.0,20.0,75,0.00,,,0.00,meteohub,2013-05-03 02:46:00,
2013-05-02 22:52:00,54.7,46.6,30.43,SE,124,4.0,20.0,74,0.00,,,0.00,meteohub,2013-05-03 02:52:00,
2013-05-02 22:57:00,54.7,46.6,30.44,East,99,10.0,16.0,74,0.00,,,0.00,meteohub,2013-05-03 02:57:00,
2013-05-02 23:02:00,54.7,46.9,30.44,ENE,73,9.0,19.0,75,0.00,,,0.00,meteohub,2013-05-03 03:02:00,
2013-05-02 23:07:00,54.3,46.9,30.44,ESE,108,9.0,19.0,76,0.00,,,0.00,meteohub,2013-05-03 03:07:00,
2013-05-02 23:12:00,54.1,47.5,30.44,SSE,155,2.0,19.0,78,0.00,,,0.00,meteohub,2013-05-03 03:12:00,
2013-05-02 23:17:00,54.1,47.8,30.45,SE,127,8.0,16.0,79,0.00,,,0.00,meteohub,2013-05-03 03:17:00,
2013-05-02 23:22:00,54.0,48.2,30.45,ESE,121,5.0,15.0,81,0.00,,,0.00,meteohub,2013-05-03 03:22:00,
2013-05-02 23:27:00,53.6,48.2,30.45,East,101,5.0,14.0,82,0.00,,,0.00,meteohub,2013-05-03 03:27:00,
2013-05-02 23:32:00,53.4,48.0,30.45,ESE,115,9.0,11.0,82,0.00,,,0.00,meteohub,2013-05-03 03:32:00,
2013-05-02 23:37:00,53.1,48.0,30.46,ENE,78,8.0,11.0,83,0.00,,,0.00,meteohub,2013-05-03 03:37:00,
2013-05-02 23:42:00,52.9,47.8,30.46,ENE,72,2.0,12.0,83,0.00,,,0.00,meteohub,2013-05-03 03:42:00,
2013-05-02 23:47:00,52.5,47.8,30.46,ESE,117,2.0,12.0,84,0.00,,,0.00,meteohub,2013-05-03 03:47:00,
2013-05-02 23:52:00,52.3,47.7,30.46,East,99,4.0,12.0,84,0.00,,,0.00,meteohub,2013-05-03 03:52:00,
2013-05-02 23:57:00,52.2,47.8,30.46,ESE,106,0.0,12.0,85,0.00,,,0.00,meteohub,2013-05-03 03:57:00,